Wind_Speed
11 13 16 18 18 16 14 13 11 10 9 10 12 12 11 10 9 9 8 7 7 8 9 9 10 10 11 10 10 10 10 9 8 8 8 7 6 5 5 5 6 7 8 9 10 11 11 11 11 10 10 9 10 10 11 12 13 14 17 18 19 18 16 13 12 12 12 12 12 14 14 15 16 17 17 18 18 19 19 19 20 21 22 22 22
13 14 16 19 18 16 14 13 11 10 10 11 12 12 11 10 10 9 7 7 8 9 9 10 10 9 10 10 9 10 9 9 8 8 8 7 7 6 5 6 7 8 9 9 10 10 11 11 11 10 10 9 9 9 9 10 11 15 18 18 18 18 16 13 12 13 13 13 13 14 14 14 15 16 17 18 19 19 19 19 20 21 23 24 24
15 15 17 18 17 15 14 12 10 9 10 11 12 11 10 9 9 7 6 7 9 9 8 9 11 8 9 10 9 9 9 9 9 8 8 7 7 6 6 6 7 8 9 9 9 10 11 11 11 10 9 8 8 7 7 8 11 16 19 18 18 18 16 13 13 14 14 14 13 13 13 13 15 16 16 17 19 19 20 20 21 22 25 26 26
16 17 18 17 15 14 13 11 9 9 10 11 11 11 10 9 7 5 6 7 7 9 7 8 11 9 8 9 8 9 8 8 8 8 7 7 6 5 5 5 6 7 8 9 10 10 11 12 11 10 9 7 6 6 6 8 11 16 19 18 18 17 16 15 15 15 14 14 13 13 12 13 14 16 16 18 19 20 22 22 23 24 25 26 26
16 18 18 17 15 13 12 11 10 10 11 11 10 10 10 9 7 5 6 6 5 7 7 7 10 9 8 9 8 8 7 7 7 7 6 5 4 4 4 4 6 7 8 9 10 11 11 11 10 9 8 6 5 5 5 8 13 16 16 16 16 16 17 17 17 15 14 14 13 12 12 13 14 16 17 18 20 22 24 24 25 25 25 24 23
17 18 18 16 14 12 12 10 10 11 11 11 11 10 9 8 7 6 6 6 6 8 6 6 9 9 8 8 8 8 7 6 5 5 4 3 3 3 4 5 6 8 8 8 9 10 10 10 9 8 8 6 5 5 6 10 14 15 15 14 15 17 17 18 17 16 15 13 12 12 12 13 14 16 17 18 20 22 25 26 26 26 26 24 20
17 17 16 15 13 12 12 11 10 11 11 11 11 10 8 7 5 6 7 6 7 8 6 6 8 8 8 8 7 8 7 6 4 3 3 2 3 4 4 5 6 7 8 8 8 9 8 9 9 8 8 6 5 6 8 13 15 15 15 15 16 17 17 18 18 16 15 14 12 12 12 13 14 16 17 19 20 22 25 27 28 27 26 24 20
18 18 16 14 12 11 11 11 12 12 11 11 9 8 7 6 5 4 6 6 6 7 7 6 7 7 8 8 7 7 7 5 3 3 3 3 3 3 4 5 6 7 7 8 8 8 8 8 8 8 9 6 5 7 9 13 15 15 15 15 15 16 17 18 18 17 16 14 12 12 12 13 14 16 17 19 21 23 25 27 28 28 26 24 22
18 17 16 14 12 11 11 12 12 12 11 10 8 6 5 6 5 4 5 6 6 7 7 5 4 5 8 8 6 5 5 4 3 3 4 2 2 3 4 5 6 7 7 8 8 8 8 8 8 9 10 8 6 7 9 12 13 14 14 15 15 16 18 19 19 18 16 14 12 11 12 12 13 15 17 19 21 23 25 27 27 28 27 24 24
17 16 14 13 12 12 12 12 13 11 10 9 7 6 4 4 4 4 5 5 5 6 6 5 5 5 6 6 6 4 4 4 3 2 3 3 2 3 5 7 8 8 8 8 8 9 9 9 9 10 10 8 8 8 9 11 12 12 14 15 15 16 17 18 19 17 15 13 12 11 11 12 13 15 17 20 21 23 25 26 26 27 26 24 25
16 14 12 11 11 12 12 12 12 10 8 8 7 5 4 4 3 4 4 5 5 4 4 5 5 5 5 5 5 5 4 4 4 3 3 3 4 4 6 8 9 10 10 9 9 9 9 10 10 11 10 9 9 9 9 11 12 12 13 13 14 15 16 17 17 16 14 12 11 10 11 12 14 16 18 20 21 22 24 24 25 25 24 24 26
14 12 11 10 11 13 13 12 11 9 7 7 6 4 5 5 4 3 3 5 5 3 3 4 4 5 5 5 5 5 4 4 4 5 4 4 5 6 8 9 10 10 10 9 9 9 10 10 10 11 10 9 9 9 10 12 12 12 12 12 13 14 15 16 15 14 13 11 11 11 12 13 15 17 19 20 21 22 23 23 24 24 23 24 27
13 11 10 12 12 13 13 11 10 8 7 6 5 4 5 5 4 3 4 4 4 3 3 3 2 3 5 4 4 5 5 4 5 6 5 5 5 5 6 7 8 9 7 6 7 9 10 10 9 10 10 11 12 11 11 12 12 12 11 11 12 13 15 15 14 13 12 11 11 12 14 16 17 18 20 21 22 22 22 23 24 23 23 24 25
12 11 11 13 13 12 11 11 9 7 6 6 5 5 5 5 5 3 4 4 3 3 5 4 2 1 3 4 4 5 5 5 6 5 4 4 4 5 5 5 6 7 6 7 8 8 9 10 10 10 12 13 14 13 12 13 12 11 10 10 11 14 16 15 14 13 12 12 13 14 16 17 18 19 21 22 23 22 22 23 23 23 23 23 24
12 11 12 13 13 11 11 10 9 7 6 6 6 6 6 6 5 3 4 5 4 3 4 5 3 2 3 4 4 5 4 5 5 3 3 3 4 6 6 6 4 3 5 7 7 7 8 10 10 11 12 13 13 13 13 12 11 9 9 11 13 15 16 15 15 14 14 14 15 16 17 18 19 21 22 23 23 22 22 23 23 22 22 23 24
12 12 13 13 12 11 10 9 8 7 6 6 6 6 6 6 4 4 4 5 5 4 4 5 5 5 4 5 4 4 3 5 5 2 3 3 4 5 5 5 4 4 6 7 6 6 8 10 10 9 12 13 13 14 14 13 12 10 11 13 15 16 16 16 16 15 15 16 17 18 19 20 21 22 22 22 22 21 21 22 22 21 22 23 24
12 12 13 12 11 10 9 8 7 7 6 5 5 5 6 5 4 4 4 4 5 5 5 5 4 5 5 4 3 3 2 4 4 2 3 3 3 4 4 5 3 4 6 6 5 6 8 8 8 9 11 13 14 15 15 15 14 13 14 15 16 17 17 17 17 17 18 20 20 21 22 22 22 22 21 21 22 21 20 21 21 20 21 22 23
11 12 11 11 11 10 9 7 6 6 5 4 4 4 5 5 4 4 4 4 5 5 5 5 4 4 4 4 3 3 2 2 3 2 3 4 3 3 3 3 2 3 4 4 4 5 6 7 7 9 12 13 14 14 14 14 14 15 16 17 17 18 18 18 19 20 21 22 22 22 22 22 21 20 20 21 21 21 20 21 20 20 21 21 22
11 10 9 9 9 8 7 6 5 5 5 4 3 4 5 4 4 5 5 5 5 5 5 5 5 4 3 3 2 2 2 2 3 2 3 4 3 4 3 2 3 4 4 4 5 5 6 6 7 9 12 11 11 11 12 13 13 14 16 17 18 19 19 20 20 21 21 21 21 21 21 21 20 20 19 20 21 21 21 21 20 20 20 20 21
9 8 8 8 7 6 6 5 5 4 4 4 4 4 4 3 4 5 6 5 5 5 4 4 5 4 3 3 2 1 2 2 2 3 3 3 4 4 4 5 5 4 4 4 4 5 5 6 7 8 9 9 9 10 12 14 13 13 16 18 19 20 20 21 20 20 20 19 20 20 20 20 20 19 19 20 21 21 22 21 21 20 19 19 20
8 7 7 7 6 5 4 4 4 4 3 4 3 3 3 3 3 4 5 5 5 4 4 3 3 3 2 2 2 1 0 1 1 2 2 2 3 3 3 5 5 4 5 5 5 5 6 6 7 9 11 10 10 11 13 15 16 15 17 19 20 21 21 21 21 20 19 19 19 19 19 19 19 19 20 20 20 21 22 22 22 21 19 19 19
7 6 5 5 5 4 4 3 3 3 2 3 3 3 2 2 3 4 4 4 4 4 3 3 2 3 2 2 2 2 2 1 0 2 3 2 2 2 3 4 4 4 4 5 6 7 7 8 9 10 11 11 11 13 14 15 16 16 17 18 20 21 21 21 21 21 20 20 20 19 18 18 18 18 19 19 20 20 21 21 22 21 20 19 18
5 5 4 4 3 3 3 3 3 2 2 2 2 2 3 3 4 4 4 3 3 3 3 3 3 3 2 2 2 2 3 2 0 1 2 2 2 3 3 4 5 4 3 5 7 7 7 9 10 11 10 10 11 13 13 13 14 15 16 18 19 20 21 21 21 21 20 21 20 19 18 17 17 17 18 18 19 20 20 20 21 21 21 20 19
4 4 3 3 3 3 3 2 2 2 2 2 2 3 3 3 4 5 4 4 3 3 3 3 3 3 3 2 2 2 4 3 1 1 2 3 3 3 3 4 5 4 3 5 7 7 6 8 9 9 10 10 11 11 12 13 14 14 16 18 19 20 20 21 21 21 21 20 19 18 18 18 17 17 17 17 18 19 19 20 20 20 20 20 20
4 4 3 3 3 3 3 3 3 3 3 2 3 4 4 4 4 5 5 4 5 4 4 4 3 3 3 3 3 3 4 4 3 3 3 3 3 3 4 4 5 4 4 5 6 6 6 7 8 9 9 9 11 12 12 13 14 16 18 18 19 19 19 21 21 20 20 19 18 17 18 18 18 17 17 17 17 17 18 18 19 19 20 20 20
4 4 4 4 4 4 4 4 4 4 4 4 4 4 5 5 5 5 5 5 5 5 5 5 5 5 5 4 5 4 4 5 4 4 4 4 3 3 4 5 5 5 5 5 6 7 5 6 7 8 8 9 11 12 12 13 15 17 18 18 18 19 19 20 20 20 19 19 18 17 17 17 17 17 17 17 17 17 17 17 17 18 18 20 20
5 5 5 5 4 4 4 4 5 5 4 4 4 5 5 5 5 5 5 6 6 6 6 6 6 6 6 5 5 4 4 5 4 3 4 4 4 3 4 5 6 7 6 5 6 7 6 6 7 7 7 8 9 10 11 13 15 17 18 17 17 18 18 20 20 20 19 19 18 17 16 16 16 16 16 17 17 17 17 16 16 16 17 18 19
6 6 5 5 5 5 5 5 5 5 5 5 5 5 5 5 6 6 6 6 6 6 7 7 7 7 6 6 5 5 5 5 4 3 3 4 4 4 5 6 7 7 6 5 4 5 5 5 6 6 6 7 8 8 10 12 14 15 15 15 15 16 17 20 21 20 20 20 19 18 17 16 16 16 16 17 17 17 17 16 16 16 16 16 17
6 6 6 6 6 6 6 6 6 6 6 6 5 5 6 6 6 7 7 7 7 7 7 7 7 7 7 6 6 6 5 5 5 5 5 5 5 5 6 7 8 7 6 5 4 3 4 4 5 4 4 5 6 7 8 10 10 11 12 14 15 15 17 18 20 21 21 20 20 20 19 18 17 16 16 17 17 16 16 16 16 16 15 16 16
7 7 6 6 6 6 6 6 6 7 7 6 6 6 6 6 6 6 7 7 8 8 8 7 7 7 7 7 7 7 6 6 6 6 7 7 6 6 6 7 7 8 7 5 3 3 4 4 4 5 4 5 6 7 7 8 9 10 12 13 15 16 17 17 18 19 19 19 21 21 20 19 18 17 16 16 16 16 16 16 15 15 15 15 15
8 8 8 7 7 7 7 7 7 7 7 7 6 6 5 6 6 6 6 7 7 8 8 7 7 7 7 7 7 7 7 7 7 7 8 8 7 6 6 7 7 7 8 7 5 4 5 5 4 6 6 5 6 7 8 8 9 10 11 12 14 16 16 16 15 16 17 18 20 21 20 19 19 18 16 16 16 16 16 16 16 15 15 14 14
9 9 9 9 9 9 9 8 8 8 8 7 7 6 6 6 6 6 6 7 7 7 8 7 7 7 7 7 8 8 9 9 9 9 9 8 8 6 6 7 7 7 8 8 7 5 6 7 6 7 7 7 7 8 9 9 9 10 10 11 12 13 14 15 15 16 17 19 20 20 19 18 18 18 18 16 16 15 15 16 16 16 15 14 13
9 9 9 9 9 9 9 9 9 9 9 9 9 8 8 7 7 7 7 7 7 8 8 8 7 8 8 9 9 10 11 11 11 10 10 9 9 8 7 6 7 8 8 9 9 7 7 8 9 9 9 8 8 9 10 10 10 10 10 11 11 12 14 16 17 17 18 18 18 19 20 20 19 19 19 18 17 16 15 15 15 16 16 15 13
10 10 10 10 10 10 10 10 11 11 11 11 10 10 10 9 9 9 9 9 9 10 10 9 9 10 10 10 11 11 11 12 11 11 10 9 9 9 9 8 6 8 9 10 10 10 8 8 10 10 10 9 10 11 12 11 11 11 11 12 12 12 12 15 17 17 18 19 17 17 19 21 21 20 20 20 18 17 16 15 15 15 15 15 14
12 12 11 11 11 11 11 12 12 12 12 12 12 12 12 12 11 11 12 12 12 12 12 12 12 12 12 12 12 12 12 12 11 11 10 9 9 10 10 9 8 8 9 10 10 10 10 10 11 12 12 12 12 13 14 13 13 13 13 13 14 14 13 14 16 18 19 19 17 14 16 20 21 21 21 21 20 19 17 15 14 14 14 14 14
13 13 12 12 12 12 13 13 13 13 13 13 14 14 14 14 14 14 14 14 15 15 15 15 14 14 14 14 13 12 12 12 12 11 10 10 11 11 10 10 9 8 9 9 10 11 12 12 13 13 13 14 14 15 16 16 15 15 15 15 16 16 16 16 17 17 17 16 14 13 15 19 21 22 22 23 23 22 20 17 15 13 13 13 13
13 14 14 13 13 13 13 14 14 14 15 15 15 15 15 16 16 16 16 16 16 16 16 16 15 14 14 14 13 13 13 13 13 12 11 12 13 12 11 11 10 10 9 10 10 12 13 14 14 14 14 15 16 16 17 18 18 18 18 18 17 18 18 18 18 17 15 13 13 14 16 19 21 22 22 23 24 23 21 19 17 15 14 13 12
16 16 15 15 15 15 14 15 15 15 16 16 16 16 16 16 17 17 17 17 17 17 17 16 14 14 14 14 14 14 14 14 14 14 14 14 14 13 13 13 12 12 12 12 12 13 14 15 16 16 16 16 17 17 18 19 19 20 20 20 19 18 19 19 18 17 15 14 15 17 19 20 21 22 22 22 23 23 22 21 19 17 16 14 13
20 19 17 16 17 17 16 16 17 18 18 17 17 17 17 18 18 18 18 19 18 18 17 16 15 15 15 15 15 16 16 15 15 15 16 16 16 15 14 14 14 14 14 14 14 15 15 16 17 18 18 18 18 19 19 19 20 21 22 23 21 20 19 19 18 17 15 15 17 19 21 21 21 22 22 21 21 22 21 21 20 19 17 15 14
22 20 19 18 19 19 19 19 20 20 19 18 18 19 20 20 19 19 20 20 19 18 17 17 17 18 17 17 17 17 17 16 16 17 17 17 17 16 16 16 16 16 16 17 17 17 18 18 18 19 19 20 20 20 20 20 20 21 23 24 24 22 21 20 19 18 18 18 19 21 22 21 21 23 23 22 21 21 21 21 21 20 18 17 15
22 21 20 20 20 21 21 22 22 22 21 20 20 21 22 21 21 21 21 21 19 19 18 18 19 18 18 18 19 19 18 18 18 19 18 17 17 17 17 17 18 18 18 19 19 19 19 20 21 20 20 21 22 22 22 22 22 21 22 23 24 24 23 22 20 19 19 19 20 21 22 21 21 23 24 23 22 21 20 20 20 20 20 19 18
24 23 22 22 22 22 21 22 23 23 22 22 23 23 23 23 22 23 22 21 20 19 19 20 20 19 19 20 21 20 19 20 21 21 19 18 19 19 19 19 20 20 21 21 21 21 21 22 23 22 22 23 23 23 24 25 25 24 23 23 24 24 24 24 22 20 20 20 21 21 22 22 22 23 24 23 22 22 21 20 20 20 20 20 20
27 26 25 25 25 23 22 22 22 21 22 24 25 25 25 24 24 24 24 23 21 21 21 22 21 21 20 22 23 22 21 22 24 23 22 21 22 22 22 22 22 22 23 23 24 24 23 23 23 24 24 24 25 25 25 26 27 27 26 25 25 25 25 25 24 23 22 22 22 23 24 23 22 22 23 24 24 23 23 22 20 20 21 21 21
29 27 26 26 26 25 25 26 25 24 25 26 26 25 25 26 26 26 26 25 23 22 23 25 24 23 23 24 25 24 23 23 24 24 24 25 25 25 25 25 25 25 25 26 26 26 25 24 24 25 26 26 26 26 27 27 27 27 27 27 27 26 26 27 27 27 25 24 24 24 25 24 23 24 25 25 26 25 25 23 22 22 22 22 22
31 29 28 28 29 29 29 29 28 28 27 27 26 25 26 27 27 26 26 26 25 24 25 27 27 27 26 27 28 26 24 23 25 25 26 27 28 28 29 29 29 29 28 29 29 29 28 27 27 27 28 28 27 28 28 27 27 27 28 29 29 28 28 28 29 29 28 26 25 26 26 25 25 26 27 27 27 28 27 26 25 25 25 24 23
32 31 31 31 32 31 31 32 31 28 27 26 26 26 28 29 29 27 27 27 28 28 29 29 29 30 29 29 30 29 27 26 26 27 29 30 30 30 31 32 32 32 32 32 32 31 30 30 29 29 30 30 30 30 30 29 29 29 29 30 31 31 30 29 29 30 30 29 28 28 27 25 26 28 29 28 29 30 30 29 28 28 28 27 26
33 33 33 34 33 33 33 34 31 28 26 27 27 27 29 30 31 31 30 30 31 31 31 32 33 33 33 32 32 32 30 29 29 30 31 32 33 32 33 34 35 35 35 35 35 34 33 32 32 31 31 31 31 32 32 31 31 31 30 30 32 33 32 30 29 30 30 30 31 30 29 28 28 28 29 30 31 32 32 31 29 29 29 29 29
35 34 34 35 36 35 35 34 32 29 30 30 30 29 30 31 32 33 33 33 33 33 33 34 35 36 36 35 35 34 32 31 32 33 34 35 35 36 35 35 36 37 37 38 37 36 35 35 35 35 34 33 32 33 34 33 31 30 29 31 33 33 32 30 30 30 30 31 31 31 31 30 30 29 30 33 35 35 33 30 29 30 31 31 31
38 37 37 37 38 38 38 37 35 33 33 33 32 32 33 34 34 34 34 34 34 35 35 36 37 37 37 37 37 36 35 34 36 37 38 38 38 38 38 38 38 39 39 38 39 38 38 38 38 38 37 36 35 35 36 35 33 32 31 32 34 34 32 30 31 31 30 30 32 33 34 33 32 31 33 36 37 37 35 31 29 29 30 31 33
39 40 40 40 40 40 39 39 37 35 35 35 34 35 35 36 36 37 37 37 37 38 38 39 39 39 38 38 38 39 39 39 40 40 41 41 41 41 41 40 40 40 41 40 40 40 40 40 40 40 39 39 38 38 38 38 37 35 34 34 35 35 33 32 31 31 31 31 33 35 37 37 35 35 36 38 39 38 37 35 32 30 30 31 33
39 40 41 42 42 41 40 38 37 36 36 36 35 35 36 38 39 40 40 39 40 41 41 41 41 40 40 41 41 42 43 44 43 43 43 43 43 43 43 43 42 42 42 43 43 43 42 42 43 42 41 41 41 40 40 40 39 37 36 35 35 34 34 33 32 33 33 33 35 37 39 39 38 38 38 38 37 36 35 35 37 35 34 34 34
Wind_Direction
177 172 172 173 171 164 159 158 157 155 157 156 153 153 151 151 141 133 136 130 120 120 125 131 133 129 122 120 118 118 120 117 110 106 101 96 91 80 62 49 38 32 29 29 28 30 31 32 35 37 35 29 28 25 20 16 7 357 353 353 356 358 359 359 359 359 356 355 352 348 346 346 346 346 348 349 350 354 356 356 354 351 349 348 340
172 172 174 174 168 160 157 156 155 155 158 157 155 155 156 153 139 134 135 120 112 117 130 135 129 123 118 116 114 113 115 111 106 100 95 92 87 73 51 36 32 30 28 29 31 34 37 39 40 39 38 32 30 28 21 14 1 354 352 353 356 357 359 360 360 356 352 351 350 346 344 344 346 346 347 347 349 354 357 357 356 354 353 351 340
165 168 170 169 163 158 154 151 152 158 161 158 156 158 155 145 133 132 126 115 116 123 140 136 123 119 115 114 112 110 112 110 104 99 98 95 86 71 51 36 34 35 31 28 31 38 42 45 45 43 42 35 30 28 17 8 354 349 350 352 354 356 2 6 3 357 350 348 347 344 343 343 348 349 349 350 351 354 355 357 359 360 360 355 340
160 162 163 162 160 157 149 145 150 159 160 156 155 154 145 133 127 123 111 115 124 127 143 133 118 119 116 111 108 106 109 110 106 104 102 96 90 77 62 48 43 42 37 32 31 36 42 46 47 46 47 40 30 24 9 359 351 349 350 353 357 1 9 11 4 358 350 347 346 343 343 346 351 352 352 354 353 353 354 357 360 2 5 1 343
158 159 157 158 158 152 143 145 155 159 157 153 150 146 138 130 126 115 105 121 125 119 131 122 112 119 118 112 109 107 109 108 109 109 104 97 90 76 62 46 42 41 35 33 31 35 41 44 47 49 52 47 27 16 359 352 350 351 354 360 5 7 10 9 4 358 350 348 348 346 346 350 352 353 355 356 355 353 353 356 359 2 8 8 351
154 155 154 154 153 147 143 151 159 157 154 151 147 140 135 133 131 121 113 131 127 116 127 114 109 121 122 119 118 114 112 112 117 113 106 97 69 55 49 39 37 38 35 34 33 36 38 39 42 46 51 45 16 4 353 348 351 357 2 7 11 10 7 4 1 357 351 352 352 350 351 353 353 354 357 357 355 353 353 355 357 1 9 14 4
148 149 150 148 148 147 147 152 155 153 153 148 143 137 135 132 127 125 126 140 131 119 131 116 110 125 127 124 125 122 124 132 142 126 100 65 47 36 32 38 38 39 42 41 39 40 36 35 39 42 47 42 13 1 352 349 354 3 7 7 10 8 3 359 358 356 353 355 355 354 356 356 354 355 358 358 356 354 353 354 356 0 8 16 15
143 145 145 144 147 147 145 147 149 150 148 141 138 139 136 124 116 131 134 139 130 111 116 115 117 132 128 125 129 132 141 150 152 129 100 48 37 36 30 36 40 43 47 46 45 42 35 33 38 44 47 40 13 358 353 351 354 359 1 3 5 3 360 357 356 355 353 355 356 357 359 357 354 355 357 358 358 356 354 354 356 0 7 17 21
142 143 142 143 149 147 143 145 145 147 144 137 137 139 135 126 123 136 131 126 123 109 109 122 132 133 125 125 132 137 145 145 144 120 103 73 33 39 39 39 40 42 45 46 46 41 32 29 33 40 42 33 9 360 359 355 354 352 353 356 359 358 358 357 355 353 352 354 358 360 2 359 355 355 358 359 360 359 356 355 359 3 5 14 22
139 138 136 142 147 144 143 142 141 145 143 134 132 130 125 124 120 122 118 113 115 114 123 138 137 126 123 126 129 135 141 134 134 117 95 87 51 28 29 31 32 34 39 41 43 39 29 24 25 28 33 30 10 3 0 353 350 350 349 351 353 355 356 355 352 351 352 357 2 5 5 1 358 357 360 1 2 1 357 357 4 8 6 10 20
132 132 135 142 144 140 138 138 139 144 142 132 126 122 115 106 99 106 109 103 95 96 121 131 131 128 126 129 130 136 140 132 128 105 73 62 49 34 30 29 25 23 26 28 30 35 29 21 20 18 23 24 8 1 357 347 346 349 349 351 351 354 356 354 351 350 354 4 9 12 11 6 2 2 3 4 5 4 359 2 11 13 11 11 15
125 129 137 141 141 137 136 137 138 137 133 127 120 117 110 100 99 112 109 100 95 99 122 122 126 130 128 133 136 130 122 115 106 96 82 63 43 33 35 36 32 30 30 21 14 20 25 18 13 13 14 15 11 5 356 347 347 350 349 350 351 355 358 355 352 352 360 12 18 20 16 11 9 7 6 7 10 8 4 10 17 17 17 16 15
126 134 139 137 138 138 138 136 130 126 123 118 112 108 103 95 97 113 113 106 113 132 124 102 91 126 129 128 126 113 103 87 71 70 68 64 55 46 41 34 33 40 42 26 11 10 12 6 4 10 8 9 16 10 357 353 353 352 350 351 354 358 359 356 355 359 6 18 24 24 20 17 13 9 10 14 16 13 10 16 22 21 21 20 20
134 139 137 135 139 139 134 129 125 122 118 112 110 107 102 99 94 103 113 110 112 120 112 92 49 123 128 113 103 93 85 69 59 60 64 67 67 68 70 55 37 34 27 10 10 9 3 359 2 10 6 5 11 5 357 356 352 348 349 356 4 3 359 357 1 6 12 21 26 26 24 20 15 14 17 20 20 18 16 22 26 25 25 24 24
137 137 136 136 139 136 128 125 126 122 115 110 109 108 102 99 97 107 114 109 107 110 116 115 116 145 108 85 88 92 86 79 74 72 80 74 55 51 59 68 53 16 13 3 357 3 2 3 7 6 1 358 3 2 357 354 344 344 360 8 12 8 2 3 9 11 16 23 26 25 23 21 20 21 22 22 22 22 22 27 29 27 28 28 27
137 136 136 138 137 133 127 127 127 120 115 110 105 104 98 95 102 112 111 112 120 132 137 127 132 141 106 62 58 73 83 100 106 102 69 56 45 52 55 62 48 346 9 7 349 2 8 9 9 3 356 353 1 4 359 352 343 353 16 19 15 12 9 11 14 15 19 25 26 24 24 23 24 24 22 23 24 25 27 31 33 30 30 32 31
138 136 135 137 138 135 132 131 128 120 115 111 107 104 96 96 106 118 123 124 127 139 143 131 127 134 123 97 75 77 85 99 114 126 81 66 44 48 47 54 47 354 6 1 346 4 11 11 2 354 1 1 360 2 358 351 346 358 19 23 19 17 17 20 21 22 25 28 27 26 25 24 25 23 21 25 27 27 31 35 35 34 34 35 34
138 138 136 140 143 141 138 136 132 125 119 113 106 95 93 105 116 122 134 136 133 136 137 133 129 131 135 135 134 140 146 104 95 93 65 67 43 24 32 44 39 18 16 359 347 358 10 13 353 350 7 7 357 356 355 349 348 360 13 19 21 22 24 27 28 28 28 28 27 25 25 23 23 22 22 26 28 28 32 35 36 36 36 37 37
138 140 142 144 146 147 144 142 137 132 131 122 101 86 90 117 129 125 129 136 137 131 129 135 136 141 151 148 149 138 132 111 88 65 39 41 15 7 31 29 14 21 32 24 5 357 5 3 345 349 5 7 358 354 352 348 351 4 10 14 20 22 24 28 29 29 29 28 27 25 24 23 22 22 23 26 28 29 31 33 34 36 37 39 39
142 147 148 147 148 151 150 144 139 139 138 126 109 98 101 123 137 134 134 136 140 142 150 146 134 144 152 145 151 106 89 87 82 87 70 25 352 351 3 1 2 6 17 24 6 359 3 346 335 351 7 12 6 1 357 349 352 10 14 13 17 19 20 24 26 28 29 29 27 26 25 24 21 21 23 25 26 29 31 31 31 33 35 38 40
146 151 148 146 150 152 147 140 140 146 142 130 117 107 113 137 145 142 138 137 141 156 167 148 135 155 153 146 164 153 94 28 55 82 74 357 323 317 337 354 8 11 5 359 346 355 359 341 342 358 6 10 6 4 3 351 348 7 17 13 14 15 16 20 22 24 27 29 29 28 27 25 23 21 21 24 26 28 31 31 30 30 32 34 38
146 150 151 151 155 152 142 144 146 153 150 137 129 124 139 162 156 150 146 144 149 159 163 149 162 190 178 174 187 193 231 246 345 13 10 349 306 306 336 356 11 24 11 337 326 343 348 342 349 358 359 3 5 5 3 350 345 360 14 15 11 9 12 17 18 19 24 26 27 26 27 27 26 23 21 22 25 28 31 32 31 30 29 30 33
147 152 156 157 164 158 154 165 161 168 174 154 148 153 166 170 163 163 164 164 168 168 164 160 176 195 187 187 194 215 250 252 209 354 334 314 301 319 341 345 349 3 358 319 314 330 342 343 348 354 353 356 4 4 358 348 345 356 10 14 9 4 9 14 14 16 22 23 23 22 23 26 26 25 23 21 23 27 31 33 32 31 29 28 29
154 159 166 169 181 176 177 195 186 192 203 178 165 167 171 172 171 175 177 182 193 193 193 191 195 204 203 207 206 221 253 266 258 245 267 272 288 313 327 327 329 337 332 313 308 316 336 344 347 351 346 350 1 360 352 345 346 357 8 10 6 1 5 11 10 14 20 22 21 20 20 22 22 23 24 24 24 25 29 33 34 32 30 29 30
175 178 186 188 198 195 194 206 205 206 206 188 177 174 175 177 179 181 182 190 202 207 215 219 226 236 232 232 238 241 253 266 275 269 269 279 295 302 302 309 319 321 313 306 304 311 327 338 343 343 337 346 357 350 344 345 348 358 6 5 360 357 2 7 7 11 17 19 21 22 21 20 19 20 21 24 26 26 28 33 35 34 30 29 31
192 198 203 201 205 205 204 211 212 210 204 192 186 183 183 185 188 190 191 196 203 210 218 225 233 241 240 243 254 257 257 263 269 268 273 278 280 278 286 302 306 296 291 296 303 310 322 331 332 329 332 348 351 340 338 346 352 359 3 360 352 351 358 4 4 8 13 15 19 21 22 21 19 19 19 20 24 26 28 32 35 35 32 30 32
204 208 212 211 211 211 211 213 212 212 209 201 198 196 195 195 198 201 202 206 210 213 219 226 231 238 243 249 257 259 257 258 256 259 272 276 274 276 286 294 288 281 286 295 300 308 319 323 316 317 335 347 344 337 339 350 359 360 358 353 346 346 355 0 2 5 9 12 15 17 21 21 19 19 20 19 20 22 26 30 34 35 35 34 34
209 212 216 218 219 220 219 218 217 218 216 213 213 213 212 210 211 214 215 218 222 222 224 229 233 239 245 250 254 255 254 254 253 256 263 270 280 284 281 276 273 276 284 287 288 296 303 301 301 317 336 332 330 340 346 354 2 357 350 347 344 347 357 359 359 2 5 7 9 12 16 18 17 20 22 21 18 18 20 25 30 32 33 34 35
216 216 220 223 226 229 229 228 227 228 229 227 227 227 226 224 222 222 224 228 230 231 232 235 238 240 242 244 246 245 245 247 252 255 256 257 261 264 265 265 267 272 274 273 270 271 275 281 290 307 320 312 318 342 351 351 353 347 343 343 344 351 360 360 358 360 2 3 5 8 11 12 13 18 23 23 20 17 15 19 25 28 30 31 32
222 221 222 224 228 234 235 235 234 235 237 237 237 238 236 235 234 231 232 236 238 239 242 244 244 242 241 242 243 244 249 255 259 263 268 269 261 255 258 261 264 270 275 276 271 262 272 282 294 304 310 312 320 335 342 340 342 344 344 343 345 353 359 0 359 358 359 2 6 6 7 7 7 11 19 23 22 18 14 13 17 22 26 30 30
224 224 224 224 227 233 235 237 238 240 241 241 241 242 240 242 243 239 239 243 244 246 248 250 250 248 246 249 253 257 264 271 276 277 278 279 276 270 266 267 269 273 280 287 288 282 286 290 298 303 305 312 318 323 329 333 339 343 344 345 350 354 355 355 356 356 357 2 4 5 6 7 4 4 10 17 20 18 14 11 11 15 20 25 29
225 227 227 226 227 230 235 237 238 239 242 245 244 242 241 243 246 245 244 246 248 251 253 253 255 257 256 257 263 271 277 283 286 287 287 288 287 283 275 274 279 281 283 288 291 289 289 297 303 301 303 312 315 315 321 327 330 334 339 346 352 354 350 349 353 355 357 359 359 0 4 5 5 3 2 7 12 13 12 11 9 10 14 19 25
228 231 232 233 233 234 235 238 241 242 242 244 245 243 240 239 241 243 246 247 248 251 254 254 255 259 261 262 267 275 281 286 289 291 293 294 295 295 291 289 289 287 287 292 295 295 295 300 303 301 304 309 310 311 313 317 321 326 334 339 345 350 347 346 350 351 351 352 352 354 358 360 2 2 359 359 2 5 6 9 10 9 10 12 18
228 233 237 240 242 243 244 244 245 247 247 247 248 248 246 244 243 244 247 250 248 248 250 251 250 254 258 263 268 274 280 284 287 289 291 295 298 300 297 293 289 289 292 294 294 295 296 295 294 294 298 302 305 306 307 311 316 321 327 330 334 343 343 340 342 341 341 343 344 346 350 353 357 359 357 354 354 355 358 4 9 10 9 8 9
229 231 235 240 243 246 249 250 250 251 252 253 253 253 252 250 248 247 249 252 252 250 249 249 249 251 256 261 265 269 272 274 276 279 284 289 290 293 295 295 294 295 295 294 294 296 298 296 295 296 298 301 303 304 304 309 314 316 320 324 328 336 339 336 335 332 333 338 341 344 345 347 352 357 356 353 349 347 349 356 4 9 9 6 3
241 239 236 237 242 246 248 250 251 252 253 255 255 256 257 256 254 252 251 253 255 255 255 254 254 256 259 263 266 268 270 270 271 273 277 280 280 283 288 289 288 287 288 293 298 301 301 299 299 300 301 303 304 305 306 309 312 315 317 320 324 330 334 336 336 332 328 334 343 347 344 343 347 351 353 352 347 342 342 346 355 2 5 4 1
249 252 247 242 241 245 249 251 252 251 251 251 252 253 255 256 257 257 256 256 257 258 259 259 260 261 263 266 267 268 269 269 270 271 271 271 272 275 276 276 278 281 282 285 291 293 294 296 297 299 301 303 303 305 308 310 312 315 317 318 321 324 327 331 336 334 329 330 339 342 340 340 342 344 349 351 346 341 338 339 343 349 354 356 355
241 241 247 256 255 251 250 252 253 253 251 251 251 252 254 255 258 260 260 261 260 260 261 262 262 263 264 267 268 267 268 269 271 272 272 271 273 274 275 276 280 283 284 285 288 289 290 293 296 299 300 301 301 303 307 309 311 313 315 316 317 319 322 325 328 330 328 327 333 336 336 336 337 339 347 350 344 339 337 335 334 336 340 344 344
245 238 242 252 256 255 254 254 255 256 254 253 253 253 253 252 253 256 258 260 261 261 262 262 260 260 260 263 266 264 264 267 270 271 272 274 277 279 279 280 281 282 283 286 286 286 287 290 293 296 298 298 299 301 304 306 307 309 311 312 312 312 316 317 318 320 320 319 322 327 330 332 332 335 343 348 342 337 337 335 332 330 331 332 334
246 244 245 246 246 247 250 251 253 256 257 257 255 253 251 250 250 251 252 254 256 258 260 259 257 257 256 258 262 262 261 262 264 265 267 270 275 278 279 280 279 280 281 283 283 284 285 286 288 291 293 294 295 297 299 300 300 302 305 306 307 308 309 310 313 314 313 312 313 316 321 325 326 329 336 342 340 336 334 333 331 330 327 323 322
241 246 251 251 245 242 245 249 251 254 256 256 253 253 253 253 253 252 251 252 253 254 257 258 257 256 256 258 261 262 263 264 263 262 262 265 269 272 274 274 274 276 277 278 279 279 280 283 285 287 288 289 291 292 293 294 294 295 297 299 301 305 307 306 307 311 312 312 311 311 313 317 318 320 327 335 337 335 331 329 328 328 326 321 316
244 251 254 252 247 243 245 250 250 250 253 253 251 252 253 254 254 255 255 255 255 253 253 255 256 257 258 260 261 261 265 268 268 266 265 265 265 266 267 267 268 270 272 273 274 275 278 282 285 286 286 286 287 289 291 292 293 293 293 295 298 301 304 303 303 305 308 310 310 308 309 310 311 313 319 327 331 330 328 327 327 326 324 320 315
246 252 253 251 247 243 242 244 246 251 256 256 254 254 254 254 254 255 256 257 257 256 255 254 254 256 257 259 260 262 265 267 268 270 270 269 268 267 266 265 265 265 267 270 271 273 275 279 282 283 284 285 286 288 289 290 292 293 294 294 296 297 298 298 297 298 300 303 304 305 305 307 308 309 313 317 320 322 322 322 324 323 320 317 314
244 248 248 245 244 245 244 245 249 254 259 260 260 259 258 258 257 256 256 257 257 257 258 259 259 258 257 257 257 258 261 265 270 273 275 274 273 273 271 270 270 270 270 271 272 273 273 275 279 282 283 283 285 287 288 289 290 292 293 293 293 294 295 293 291 291 293 295 298 300 301 303 304 305 306 308 310 314 315 314 314 316 316 314 313
245 247 244 240 243 249 252 252 252 254 257 260 261 260 259 259 259 258 259 260 260 258 258 259 261 261 261 261 261 261 260 263 267 270 272 273 274 274 274 274 274 274 273 274 274 275 275 276 279 281 282 281 281 284 287 288 288 290 292 292 292 292 292 292 290 288 289 291 293 295 297 299 301 302 303 304 306 308 310 309 305 305 309 311 311
249 251 249 246 247 251 254 254 254 255 257 258 258 258 258 259 260 261 261 263 263 262 261 261 261 261 262 263 264 265 263 260 261 263 264 267 269 271 273 274 273 273 273 273 274 274 275 275 275 276 278 278 278 281 283 283 284 287 289 291 292 290 289 289 290 290 290 291 291 293 295 297 300 301 301 302 304 306 309 309 306 302 303 306 308
250 251 252 251 252 255 257 256 258 262 263 260 259 258 258 258 259 261 262 263 264 265 265 266 265 264 263 262 262 264 265 265 265 266 266 267 268 269 270 272 272 272 272 273 274 274 275 275 275 275 277 278 278 279 280 281 282 286 289 290 290 289 288 289 290 289 289 290 291 291 293 295 297 299 300 299 301 303 306 307 306 305 304 304 306
251 251 252 252 254 258 259 258 258 261 261 260 260 261 260 260 261 262 263 264 265 265 266 266 266 265 264 264 264 263 265 266 267 267 267 268 269 270 271 271 272 273 274 273 274 276 276 276 276 277 279 280 280 279 280 281 282 285 289 289 288 287 288 288 287 286 286 288 289 290 292 294 296 297 298 297 297 300 302 302 301 302 302 303 305
254 253 252 253 254 256 257 258 257 257 258 259 260 261 262 262 262 264 265 266 266 265 264 264 265 266 265 264 264 264 265 267 269 268 266 265 266 269 271 271 271 273 275 275 276 276 276 275 275 276 278 280 281 280 280 280 280 281 284 285 284 285 286 287 286 284 285 288 290 289 290 293 296 296 294 294 293 296 299 300 298 297 296 298 302
255 255 254 254 255 255 256 257 257 259 260 260 260 261 262 262 262 262 262 263 264 264 264 264 265 266 267 266 265 266 268 270 271 270 267 265 265 266 268 269 270 271 272 274 275 276 276 276 275 276 276 277 279 279 279 279 278 279 280 281 282 283 284 286 285 284 286 288 289 288 289 293 297 297 293 291 290 292 294 295 294 295 295 295 297
257 258 257 256 255 255 255 255 258 260 259 259 262 264 265 264 263 262 261 261 261 261 261 264 266 267 269 269 269 269 269 270 270 268 267 266 266 267 267 268 268 269 269 270 272 274 276 276 275 275 275 275 275 276 277 278 278 279 278 279 280 282 283 284 285 285 286 287 288 288 288 291 297 298 295 293 292 294 294 292 291 295 298 296 293
Height
5915 5917 5919 5921 5922 5923 5923 5923 5924 5925 5926 5927 5927 5928 5930 5931 5932 5933 5934 5935 5935 5935 5936 5937 5937 5937 5937 5938 5939 5939 5940 5941 5942 5943 5943 5943 5943 5943 5942 5942 5941 5941 5941 5940 5939 5939 5938 5938 5937 5936 5935 5934 5933 5932 5931 5930 5929 5928 5927 5925 5924 5922 5920 5919 5918 5917 5916 5915 5914 5913 5912 5911 5909 5908 5906 5905 5903 5902 5902 5900 5898 5896 5893 5890 5886
5916 5918 5920 5922 5922 5922 5923 5924 5924 5925 5927 5927 5928 5929 5930 5931 5932 5934 5935 5935 5935 5936 5937 5938 5938 5938 5938 5939 5939 5940 5941 5942 5943 5943 5944 5944 5944 5943 5943 5942 5942 5941 5941 5940 5939 5939 5938 5938 5937 5937 5936 5934 5933 5932 5931 5930 5929 5928 5927 5925 5923 5922 5920 5919 5917 5917 5916 5915 5914 5913 5912 5911 5909 5907 5906 5904 5903 5901 5901 5900 5898 5895 5892 5889 5883
5917 5919 5921 5921 5921 5922 5923 5924 5925 5926 5927 5928 5929 5930 5931 5932 5933 5935 5935 5936 5936 5937 5938 5938 5938 5939 5939 5939 5940 5941 5942 5943 5943 5944 5944 5944 5944 5944 5943 5943 5942 5941 5941 5940 5940 5939 5939 5938 5938 5937 5936 5935 5934 5933 5932 5931 5929 5928 5927 5925 5923 5922 5920 5919 5918 5917 5916 5915 5914 5913 5912 5911 5909 5907 5905 5904 5902 5900 5899 5898 5897 5894 5891 5887 5880
5917 5919 5920 5921 5922 5922 5923 5924 5926 5927 5928 5929 5930 5932 5932 5933 5934 5936 5936 5937 5937 5937 5939 5938 5938 5939 5940 5940 5941 5942 5943 5943 5944 5944 5944 5944 5944 5944 5943 5943 5942 5941 5941 5940 5940 5940 5939 5939 5938 5937 5937 5936 5934 5933 5932 5931 5930 5929 5927 5926 5924 5922 5920 5919 5918 5917 5916 5915 5914 5913 5912 5910 5909 5907 5905 5903 5901 5899 5898 5896 5895 5893 5891 5887 5879
5917 5919 5920 5921 5923 5923 5924 5925 5926 5928 5929 5930 5931 5933 5933 5934 5935 5936 5937 5938 5939 5938 5939 5939 5938 5939 5940 5941 5942 5943 5943 5944 5944 5944 5944 5944 5944 5944 5944 5943 5943 5942 5941 5941 5941 5940 5939 5939 5938 5937 5937 5936 5934 5933 5932 5931 5930 5929 5928 5926 5924 5922 5920 5919 5918 5917 5916 5915 5914 5913 5911 5910 5908 5907 5905 5902 5900 5898 5896 5894 5893 5892 5890 5888 5881
5918 5920 5921 5922 5924 5924 5925 5926 5927 5929 5930 5931 5932 5933 5934 5934 5935 5936 5937 5938 5939 5939 5940 5940 5939 5940 5941 5941 5942 5943 5944 5944 5944 5944 5944 5944 5944 5944 5944 5944 5943 5942 5942 5942 5941 5940 5939 5939 5938 5938 5937 5936 5935 5933 5932 5931 5931 5930 5928 5926 5924 5922 5921 5919 5918 5917 5916 5914 5913 5912 5911 5909 5908 5906 5904 5902 5899 5897 5895 5893 5891 5890 5889 5888 5883
5919 5921 5922 5923 5925 5926 5926 5927 5929 5930 5931 5932 5933 5934 5934 5935 5936 5937 5938 5938 5939 5939 5940 5941 5940 5941 5941 5942 5942 5943 5944 5944 5944 5944 5944 5944 5944 5944 5944 5944 5943 5943 5942 5942 5941 5940 5939 5939 5939 5938 5937 5936 5935 5934 5933 5932 5931 5930 5928 5926 5924 5923 5921 5920 5919 5917 5916 5914 5913 5911 5910 5909 5907 5906 5904 5902 5899 5896 5894 5891 5889 5887 5887 5887 5884
5919 5921 5922 5924 5926 5927 5927 5928 5930 5931 5932 5933 5934 5935 5935 5936 5936 5938 5938 5938 5939 5939 5940 5941 5941 5941 5941 5942 5942 5943 5944 5944 5944 5944 5944 5943 5944 5944 5944 5944 5943 5943 5943 5942 5942 5940 5939 5939 5939 5938 5938 5937 5935 5934 5933 5931 5930 5929 5928 5926 5924 5923 5922 5920 5919 5917 5916 5914 5912 5911 5910 5908 5907 5906 5904 5901 5899 5896 5893 5890 5887 5885 5884 5885 5883
5921 5922 5923 5925 5927 5928 5928 5930 5931 5932 5933 5934 5935 5935 5936 5936 5937 5938 5938 5938 5938 5938 5939 5941 5941 5941 5941 5941 5942 5943 5943 5944 5943 5944 5944 5944 5944 5944 5944 5944 5943 5943 5943 5942 5942 5940 5940 5939 5939 5939 5939 5937 5936 5934 5933 5932 5930 5929 5928 5926 5924 5923 5922 5920 5919 5917 5916 5914 5912 5911 5910 5908 5907 5906 5904 5901 5899 5896 5892 5890 5886 5883 5881 5882 5882
5922 5923 5924 5926 5928 5928 5929 5930 5932 5933 5934 5935 5936 5936 5937 5937 5937 5938 5938 5938 5938 5938 5939 5940 5941 5941 5941 5941 5942 5943 5943 5944 5944 5944 5944 5944 5944 5944 5944 5944 5944 5944 5943 5943 5942 5941 5940 5940 5939 5940 5940 5938 5936 5935 5934 5933 5931 5929 5928 5926 5925 5923 5921 5920 5919 5918 5916 5914 5912 5911 5910 5909 5907 5906 5904 5902 5899 5896 5893 5890 5886 5883 5880 5879 5880
5922 5923 5925 5927 5928 5929 5930 5931 5932 5934 5935 5936 5936 5937 5937 5937 5937 5938 5939 5939 5939 5939 5940 5940 5941 5941 5941 5942 5942 5943 5943 5944 5944 5944 5945 5945 5945 5945 5945 5945 5945 5945 5944 5943 5942 5941 5941 5940 5940 5939 5940 5939 5937 5936 5934 5933 5931 5929 5928 5927 5925 5924 5922 5920 5919 5918 5916 5914 5912 5911 5910 5908 5907 5905 5904 5902 5900 5897 5893 5890 5886 5883 5881 5879 5877
5922 5924 5927 5928 5929 5929 5931 5932 5934 5935 5936 5936 5936 5937 5937 5937 5938 5939 5939 5939 5939 5940 5941 5941 5941 5941 5942 5942 5942 5943 5943 5944 5945 5945 5946 5946 5946 5946 5946 5946 5945 5945 5944 5943 5941 5941 5940 5940 5939 5939 5939 5939 5938 5936 5935 5933 5931 5929 5928 5927 5925 5924 5922 5921 5920 5918 5916 5914 5912 5911 5910 5908 5907 5905 5904 5902 5900 5897 5894 5890 5887 5884 5882 5880 5876
5924 5926 5928 5929 5930 5930 5931 5933 5934 5935 5936 5937 5937 5937 5937 5937 5938 5939 5939 5939 5939 5940 5941 5942 5942 5942 5942 5943 5943 5943 5944 5944 5946 5946 5947 5947 5947 5947 5946 5945 5944 5944 5943 5943 5942 5940 5939 5939 5938 5938 5938 5938 5938 5937 5935 5933 5931 5929 5928 5927 5925 5924 5923 5921 5920 5918 5916 5914 5912 5911 5910 5908 5907 5906 5904 5902 5900 5897 5894 5891 5888 5886 5883 5881 5878
5926 5927 5928 5929 5931 5932 5932 5934 5935 5936 5936 5937 5938 5938 5938 5938 5938 5939 5939 5939 5940 5940 5941 5941 5943 5943 5943 5943 5944 5944 5945 5945 5946 5946 5946 5947 5947 5947 5947 5946 5945 5944 5943 5943 5942 5941 5939 5939 5938 5937 5937 5936 5936 5936 5936 5934 5932 5930 5928 5927 5926 5924 5923 5922 5920 5918 5916 5914 5912 5911 5910 5909 5907 5906 5904 5901 5899 5897 5895 5892 5889 5887 5885 5883 5880
5927 5928 5929 5930 5931 5932 5933 5935 5936 5936 5937 5938 5938 5939 5938 5938 5938 5939 5939 5939 5940 5941 5941 5941 5942 5944 5944 5944 5944 5945 5945 5945 5946 5945 5946 5946 5946 5947 5947 5946 5946 5945 5944 5944 5942 5941 5939 5938 5937 5936 5935 5934 5933 5934 5935 5935 5934 5931 5929 5927 5926 5925 5924 5922 5921 5919 5917 5915 5913 5912 5910 5909 5907 5905 5903 5901 5899 5897 5895 5893 5890 5888 5887 5885 5882
5928 5929 5930 5931 5932 5933 5934 5935 5936 5937 5938 5938 5939 5939 5939 5938 5939 5940 5940 5940 5940 5941 5942 5942 5942 5944 5944 5945 5945 5945 5945 5945 5945 5945 5945 5946 5946 5946 5946 5946 5946 5945 5944 5944 5943 5941 5939 5938 5937 5936 5935 5934 5932 5931 5932 5934 5934 5932 5929 5927 5926 5925 5924 5923 5921 5920 5918 5915 5914 5912 5910 5909 5907 5905 5903 5901 5899 5898 5896 5893 5892 5890 5888 5886 5884
5929 5930 5931 5932 5933 5934 5935 5936 5937 5937 5938 5938 5939 5939 5939 5939 5940 5941 5941 5941 5942 5942 5942 5943 5943 5944 5944 5944 5945 5945 5945 5945 5946 5945 5945 5946 5946 5946 5946 5946 5945 5944 5944 5944 5943 5941 5940 5938 5937 5936 5936 5934 5933 5931 5931 5932 5932 5931 5929 5927 5926 5925 5924 5923 5921 5920 5917 5915 5913 5911 5910 5908 5906 5905 5903 5902 5900 5898 5896 5894 5892 5891 5889 5887 5885
5930 5931 5932 5933 5934 5935 5935 5936 5937 5937 5938 5939 5939 5939 5939 5940 5941 5941 5941 5942 5942 5943 5942 5943 5944 5944 5944 5944 5944 5944 5945 5945 5946 5946 5946 5946 5946 5946 5946 5946 5946 5944 5944 5943 5943 5941 5940 5938 5937 5936 5935 5933 5933 5932 5932 5932 5931 5930 5928 5926 5925 5924 5923 5922 5920 5918 5916 5914 5912 5911 5909 5908 5907 5906 5904 5902 5901 5899 5897 5894 5893 5891 5890 5888 5886
5931 5932 5933 5934 5935 5935 5936 5937 5937 5938 5938 5939 5940 5939 5940 5940 5941 5941 5942 5942 5943 5943 5943 5943 5944 5944 5944 5944 5944 5945 5945 5945 5946 5946 5946 5946 5946 5946 5946 5946 5945 5944 5943 5943 5942 5941 5939 5938 5937 5936 5935 5934 5934 5934 5933 5932 5931 5929 5928 5926 5924 5923 5922 5920 5919 5917 5916 5914 5912 5911 5910 5908 5907 5906 5905 5903 5902 5900 5898 5895 5894 5892 5891 5889 5888
5932 5933 5934 5935 5936 5937 5937 5938 5938 5939 5939 5940 5940 5940 5940 5941 5941 5942 5942 5942 5943 5943 5943 5943 5944 5944 5945 5945 5945 5945 5945 5945 5946 5946 5946 5946 5946 5945 5945 5945 5944 5943 5943 5943 5942 5941 5939 5938 5937 5937 5936 5935 5935 5934 5933 5932 5931 5929 5927 5926 5924 5923 5922 5920 5919 5918 5917 5915 5913 5911 5910 5909 5908 5907 5905 5904 5903 5901 5899 5897 5895 5894 5892 5891 5889
5933 5934 5935 5936 5937 5937 5938 5938 5939 5939 5940 5941 5941 5941 5941 5941 5942 5942 5943 5943 5943 5944 5944 5944 5944 5945 5945 5945 5945 5945 5945 5946 5946 5946 5946 5946 5945 5945 5944 5944 5944 5943 5943 5942 5942 5941 5939 5939 5938 5938 5937 5935 5934 5933 5932 5932 5931 5929 5927 5925 5924 5923 5922 5921 5920 5919 5917 5916 5914 5912 5911 5910 5908 5907 5906 5905 5904 5902 5900 5898 5897 5895 5894 5892 5891
5934 5935 5936 5936 5937 5938 5938 5939 5939 5940 5940 5941 5941 5941 5941 5942 5942 5942 5943 5943 5944 5944 5944 5944 5945 5945 5945 5945 5945 5945 5945 5945 5945 5946 5945 5945 5945 5944 5943 5943 5944 5943 5943 5942 5941 5940 5940 5939 5938 5937 5936 5935 5934 5933 5932 5932 5931 5929 5927 5925 5924 5924 5923 5921 5920 5919 5918 5916 5914 5913 5912 5910 5909 5907 5906 5905 5904 5903 5901 5900 5898 5897 5895 5894 5893
5935 5936 5936 5937 5938 5938 5939 5939 5939 5940 5940 5941 5941 5942 5942 5942 5942 5943 5943 5943 5944 5944 5944 5945 5945 5945 5945 5945 5946 5946 5945 5945 5946 5946 5945 5945 5945 5944 5944 5943 5943 5943 5942 5942 5941 5941 5940 5939 5938 5937 5937 5936 5935 5934 5933 5933 5932 5930 5927 5925 5925 5925 5924 5922 5921 5920 5918 5916 5915 5914 5913 5911 5910 5908 5907 5905 5904 5903 5902 5901 5899 5898 5897 5896 5895
5935 5936 5936 5937 5938 5938 5939 5939 5939 5940 5940 5941 5941 5942 5942 5942 5943 5943 5943 5944 5944 5944 5945 5945 5945 5945 5945 5946 5946 5946 5946 5946 5946 5946 5945 5945 5945 5944 5944 5943 5943 5943 5942 5942 5942 5941 5940 5940 5938 5937 5937 5937 5935 5935 5934 5933 5933 5930 5927 5926 5926 5926 5924 5922 5921 5920 5918 5917 5916 5915 5914 5912 5910 5909 5908 5906 5905 5903 5902 5901 5900 5899 5898 5897 5896
5935 5936 5936 5937 5938 5938 5938 5939 5939 5940 5940 5941 5941 5942 5942 5943 5943 5943 5944 5944 5944 5944 5945 5945 5945 5945 5945 5945 5946 5946 5946 5946 5946 5945 5945 5945 5945 5944 5944 5943 5942 5942 5942 5942 5942 5941 5940 5939 5938 5937 5937 5936 5935 5935 5935 5934 5932 5930 5928 5926 5926 5926 5925 5923 5921 5920 5918 5917 5917 5916 5914 5913 5911 5909 5908 5907 5906 5904 5903 5902 5901 5900 5899 5898 5897
5935 5936 5936 5937 5937 5938 5938 5939 5939 5940 5940 5941 5941 5942 5942 5942 5943 5943 5944 5944 5944 5944 5944 5945 5945 5945 5945 5945 5945 5945 5945 5945 5945 5945 5944 5944 5944 5944 5943 5942 5942 5941 5941 5941 5941 5940 5940 5939 5938 5938 5937 5935 5935 5935 5935 5934 5932 5930 5928 5927 5927 5927 5925 5923 5921 5920 5918 5918 5917 5916 5915 5913 5911 5910 5908 5907 5907 5906 5904 5903 5902 5901 5900 5899 5898
5935 5935 5936 5937 5937 5938 5938 5939 5939 5939 5940 5940 5941 5941 5942 5942 5943 5943 5943 5944 5944 5944 5944 5944 5944 5944 5944 5944 5944 5944 5944 5944 5944 5944 5944 5944 5943 5943 5943 5942 5941 5941 5941 5941 5940 5940 5939 5939 5939 5938 5937 5936 5936 5936 5935 5934 5932 5929 5928 5928 5928 5927 5925 5923 5921 5920 5919 5918 5917 5917 5915 5914 5912 5910 5908 5907 5907 5906 5905 5904 5903 5901 5900 5899 5898
5934 5935 5936 5936 5937 5938 5938 5938 5939 5939 5940 5940 5941 5941 5941 5942 5942 5942 5943 5943 5943 5943 5943 5943 5943 5943 5943 5944 5944 5944 5944 5944 5943 5943 5943 5943 5942 5942 5942 5942 5941 5941 5941 5941 5940 5940 5939 5939 5939 5938 5937 5937 5937 5937 5935 5933 5931 5929 5929 5928 5927 5926 5924 5922 5921 5920 5919 5919 5918 5917 5916 5914 5913 5911 5909 5908 5907 5907 5906 5905 5904 5903 5901 5900 5899
5934 5935 5935 5936 5937 5937 5938 5938 5939 5939 5939 5940 5940 5941 5941 5941 5941 5942 5942 5942 5942 5942 5942 5942 5943 5943 5943 5943 5943 5943 5943 5943 5943 5943 5943 5943 5942 5942 5942 5941 5941 5940 5940 5940 5940 5940 5939 5939 5939 5938 5938 5938 5937 5936 5934 5932 5930 5930 5929 5927 5926 5925 5923 5922 5921 5920 5920 5919 5918 5918 5917 5915 5914 5912 5910 5909 5907 5907 5906 5905 5904 5903 5902 5901 5899
5934 5934 5935 5936 5936 5937 5937 5938 5938 5939 5939 5939 5940 5940 5940 5940 5941 5941 5941 5941 5941 5941 5941 5942 5942 5942 5942 5942 5942 5942 5942 5942 5942 5942 5941 5941 5942 5941 5941 5940 5940 5939 5939 5939 5939 5939 5939 5938 5938 5937 5937 5936 5935 5934 5933 5932 5931 5930 5929 5928 5926 5925 5924 5922 5921 5920 5919 5919 5918 5917 5917 5916 5915 5913 5912 5910 5908 5907 5906 5906 5905 5904 5903 5902 5900
5932 5933 5934 5935 5935 5936 5937 5937 5938 5938 5938 5939 5939 5939 5939 5939 5940 5940 5940 5940 5940 5940 5940 5940 5941 5941 5941 5941 5941 5941 5941 5941 5941 5941 5940 5940 5940 5940 5939 5939 5938 5938 5937 5937 5938 5938 5937 5937 5936 5936 5935 5934 5933 5932 5932 5931 5931 5930 5929 5928 5927 5926 5925 5923 5922 5920 5919 5918 5917 5917 5916 5916 5915 5914 5913 5911 5909 5908 5907 5906 5905 5904 5903 5902 5901
5931 5932 5933 5933 5934 5935 5936 5936 5937 5937 5937 5938 5938 5938 5939 5939 5939 5939 5939 5939 5939 5939 5939 5939 5940 5940 5940 5940 5941 5940 5940 5940 5940 5940 5939 5939 5939 5938 5938 5938 5937 5937 5936 5936 5936 5936 5936 5935 5935 5934 5934 5933 5933 5932 5931 5930 5930 5929 5928 5927 5927 5926 5925 5923 5922 5921 5920 5918 5917 5917 5916 5915 5914 5914 5913 5912 5911 5909 5908 5906 5905 5904 5903 5903 5902
5930 5930 5931 5932 5933 5934 5934 5935 5935 5936 5936 5936 5937 5937 5938 5938 5938 5938 5938 5938 5938 5938 5938 5938 5939 5939 5939 5939 5939 5939 5939 5939 5939 5939 5938 5938 5938 5938 5938 5937 5937 5936 5936 5935 5935 5935 5934 5934 5934 5933 5933 5933 5932 5931 5930 5930 5929 5928 5927 5927 5926 5926 5925 5923 5922 5921 5920 5919 5918 5917 5916 5915 5914 5913 5913 5913 5912 5910 5909 5907 5905 5904 5903 5903 5902
5927 5928 5929 5930 5931 5932 5933 5933 5934 5934 5935 5935 5935 5936 5936 5936 5937 5937 5937 5937 5937 5937 5937 5937 5937 5937 5937 5938 5938 5938 5938 5938 5938 5938 5937 5937 5937 5936 5936 5936 5936 5935 5935 5934 5934 5934 5933 5933 5933 5932 5932 5932 5931 5930 5929 5929 5928 5927 5927 5926 5925 5926 5925 5923 5922 5920 5919 5919 5918 5917 5916 5915 5914 5913 5912 5912 5912 5911 5909 5907 5906 5904 5903 5902 5902
5924 5925 5927 5928 5929 5930 5931 5931 5932 5932 5933 5933 5934 5934 5934 5935 5935 5935 5936 5936 5936 5936 5936 5936 5936 5936 5936 5936 5936 5937 5936 5936 5936 5936 5936 5936 5936 5935 5935 5935 5935 5935 5934 5934 5933 5933 5933 5933 5932 5932 5932 5931 5931 5930 5929 5929 5928 5927 5926 5925 5925 5925 5925 5923 5922 5920 5919 5918 5917 5917 5916 5915 5914 5913 5912 5911 5912 5911 5910 5908 5906 5904 5903 5902 5901
5923 5924 5925 5925 5926 5928 5928 5929 5930 5930 5931 5931 5932 5932 5932 5933 5933 5934 5934 5934 5934 5934 5934 5935 5935 5935 5935 5935 5935 5935 5935 5935 5935 5935 5935 5934 5934 5934 5933 5933 5933 5934 5934 5933 5933 5933 5932 5932 5932 5932 5931 5931 5930 5930 5929 5929 5928 5927 5926 5926 5925 5925 5924 5923 5922 5921 5919 5918 5917 5916 5915 5915 5914 5913 5912 5910 5910 5910 5909 5907 5906 5904 5903 5902 5901
5922 5923 5923 5923 5924 5925 5926 5927 5928 5928 5929 5929 5929 5930 5930 5931 5931 5932 5932 5932 5932 5933 5933 5933 5934 5934 5934 5934 5934 5934 5934 5933 5933 5933 5933 5933 5932 5932 5932 5932 5932 5932 5932 5932 5932 5932 5931 5931 5930 5930 5930 5930 5929 5929 5928 5928 5927 5927 5926 5925 5925 5924 5923 5922 5921 5920 5919 5918 5917 5916 5915 5914 5913 5913 5912 5910 5909 5909 5908 5907 5905 5904 5903 5902 5901
5918 5919 5921 5922 5923 5923 5924 5925 5926 5926 5927 5927 5928 5928 5928 5929 5929 5930 5930 5930 5931 5931 5931 5932 5932 5933 5933 5933 5933 5933 5932 5932 5932 5932 5932 5931 5931 5931 5931 5931 5931 5931 5931 5931 5931 5931 5930 5929 5929 5929 5929 5929 5928 5928 5927 5927 5926 5925 5925 5924 5924 5923 5921 5920 5919 5919 5918 5917 5916 5915 5914 5913 5912 5912 5910 5909 5908 5908 5907 5906 5905 5903 5902 5901 5900
5917 5917 5919 5921 5922 5923 5923 5923 5923 5924 5925 5926 5926 5926 5926 5927 5927 5927 5927 5928 5928 5928 5929 5929 5930 5931 5931 5931 5931 5930 5930 5930 5930 5930 5930 5930 5930 5930 5930 5930 5930 5929 5929 5929 5929 5929 5929 5928 5928 5928 5928 5928 5927 5926 5926 5925 5925 5924 5923 5922 5922 5921 5920 5919 5918 5917 5916 5916 5915 5914 5913 5912 5911 5910 5909 5908 5907 5907 5906 5905 5904 5903 5901 5900 5899
5916 5917 5918 5918 5919 5921 5922 5921 5921 5922 5923 5923 5924 5924 5924 5924 5924 5924 5924 5925 5925 5926 5926 5926 5927 5928 5928 5928 5928 5927 5927 5927 5927 5927 5927 5927 5928 5928 5928 5928 5928 5927 5927 5927 5927 5926 5926 5926 5926 5926 5926 5926 5925 5924 5923 5923 5923 5922 5921 5920 5919 5919 5919 5918 5917 5916 5915 5914 5913 5912 5911 5910 5909 5908 5907 5907 5906 5906 5905 5904 5903 5902 5901 5900 5899
5913 5914 5916 5916 5916 5917 5918 5918 5918 5919 5919 5920 5921 5921 5921 5922 5922 5922 5922 5922 5923 5924 5924 5924 5924 5925 5925 5925 5925 5924 5924 5925 5925 5924 5924 5925 5925 5925 5926 5926 5925 5925 5925 5924 5924 5924 5924 5923 5923 5924 5924 5923 5923 5922 5921 5921 5920 5920 5919 5918 5917 5917 5916 5915 5915 5914 5913 5913 5912 5911 5910 5909 5908 5906 5905 5905 5904 5904 5903 5903 5902 5901 5900 5898 5898
5910 5911 5912 5913 5914 5914 5914 5915 5916 5916 5916 5916 5917 5918 5919 5919 5920 5920 5920 5921 5921 5921 5921 5921 5921 5922 5922 5922 5922 5922 5922 5922 5922 5922 5922 5922 5922 5922 5922 5922 5922 5922 5921 5921 5921 5921 5921 5921 5921 5921 5921 5921 5920 5920 5919 5919 5918 5918 5918 5917 5915 5914 5914 5913 5913 5913 5912 5911 5910 5909 5909 5908 5907 5905 5904 5903 5902 5902 5901 5901 5900 5899 5898 5897 5896
5907 5908 5908 5910 5911 5912 5913 5913 5914 5915 5914 5913 5913 5915 5916 5916 5917 5917 5917 5918 5919 5919 5919 5918 5918 5918 5918 5918 5918 5919 5919 5920 5920 5920 5920 5920 5920 5919 5919 5919 5919 5918 5918 5918 5918 5918 5918 5918 5918 5918 5918 5918 5917 5917 5917 5917 5916 5916 5915 5915 5913 5912 5911 5911 5910 5910 5910 5909 5908 5908 5907 5906 5905 5904 5902 5901 5900 5899 5899 5898 5897 5896 5896 5895 5894
5903 5904 5905 5906 5907 5908 5909 5910 5911 5912 5911 5910 5910 5912 5913 5914 5914 5914 5914 5915 5916 5917 5916 5916 5915 5915 5915 5915 5914 5915 5916 5918 5918 5919 5919 5918 5918 5917 5917 5917 5916 5916 5916 5915 5915 5915 5915 5915 5915 5914 5914 5915 5915 5914 5914 5914 5914 5913 5912 5912 5911 5910 5909 5909 5908 5907 5907 5907 5906 5905 5904 5903 5903 5901 5900 5899 5898 5897 5896 5895 5894 5894 5893 5892 5891
5900 5901 5902 5902 5903 5904 5905 5906 5907 5908 5908 5907 5908 5909 5910 5911 5911 5911 5912 5912 5912 5913 5913 5912 5912 5912 5912 5913 5912 5912 5915 5916 5915 5915 5914 5914 5914 5914 5913 5913 5913 5913 5913 5912 5912 5913 5913 5912 5912 5911 5911 5911 5911 5911 5910 5911 5911 5910 5909 5909 5908 5908 5907 5906 5905 5904 5903 5904 5903 5902 5902 5901 5900 5899 5898 5897 5896 5895 5894 5893 5892 5891 5890 5889 5888
5896 5897 5898 5898 5899 5900 5901 5901 5903 5905 5906 5905 5904 5904 5906 5907 5907 5908 5909 5909 5909 5909 5909 5909 5908 5908 5909 5909 5909 5910 5911 5912 5910 5909 5909 5909 5909 5910 5910 5909 5909 5909 5909 5909 5909 5910 5910 5910 5910 5909 5907 5907 5907 5907 5906 5906 5906 5905 5906 5905 5905 5904 5903 5903 5902 5901 5900 5900 5899 5898 5898 5898 5897 5896 5894 5893 5893 5892 5891 5890 5889 5887 5886 5885 5884
5893 5893 5894 5895 5895 5896 5896 5896 5900 5903 5904 5902 5901 5901 5901 5902 5903 5904 5906 5906 5906 5906 5905 5905 5905 5905 5905 5906 5906 5905 5906 5907 5907 5907 5906 5906 5905 5906 5906 5906 5905 5905 5904 5904 5904 5906 5906 5906 5906 5905 5904 5903 5903 5903 5901 5901 5901 5901 5902 5902 5900 5899 5899 5900 5900 5898 5897 5896 5895 5894 5894 5895 5894 5893 5891 5890 5889 5889 5888 5887 5885 5884 5882 5881 5880
5888 5889 5890 5891 5891 5891 5891 5893 5898 5900 5899 5898 5899 5899 5899 5899 5898 5899 5900 5901 5902 5902 5901 5901 5901 5901 5902 5902 5902 5901 5902 5903 5903 5903 5903 5902 5902 5901 5902 5902 5902 5901 5900 5899 5899 5901 5901 5901 5901 5900 5900 5899 5899 5898 5897 5896 5897 5898 5898 5897 5895 5895 5896 5897 5896 5895 5893 5892 5890 5890 5890 5890 5890 5890 5888 5885 5884 5885 5885 5884 5882 5880 5878 5876 5876
5884 5884 5885 5886 5887 5887 5887 5889 5893 5895 5894 5894 5895 5895 5895 5895 5895 5895 5895 5896 5896 5897 5897 5896 5896 5896 5897 5898 5897 5897 5898 5898 5898 5898 5898 5898 5897 5897 5897 5897 5897 5897 5896 5895 5895 5896 5896 5896 5895 5895 5895 5895 5894 5894 5893 5892 5893 5894 5894 5892 5891 5891 5892 5893 5892 5891 5890 5888 5887 5885 5885 5886 5887 5886 5884 5882 5880 5880 5880 5879 5878 5877 5876 5874 5872
5879 5880 5881 5882 5882 5883 5884 5885 5887 5889 5890 5890 5890 5891 5891 5891 5890 5890 5890 5890 5890 5890 5891 5891 5891 5892 5893 5894 5894 5893 5893 5894 5893 5893 5892 5892 5892 5893 5893 5893 5893 5893 5892 5891 5891 5890 5890 5890 5890 5890 5890 5890 5889 5889 5888 5887 5888 5889 5889 5889 5887 5887 5888 5888 5887 5886 5885 5884 5883 5881 5879 5880 5881 5881 5879 5877 5876 5876 5875 5874 5873 5873 5873 5871 5869
5874 5875 5875 5877 5877 5878 5879 5880 5882 5884 5884 5885 5885 5886 5887 5886 5885 5884 5884 5884 5884 5884 5884 5885 5885 5887 5888 5888 5889 5888 5888 5887 5887 5887 5887 5887 5887 5887 5887 5887 5887 5888 5887 5886 5886 5885 5886 5885 5885 5885 5885 5885 5885 5884 5883 5882 5882 5884 5885 5884 5884 5883 5883 5883 5882 5882 5881 5880 5879 5876 5875 5875 5875 5875 5872 5870 5869 5870 5871 5869 5867 5868 5869 5867 5865